Flag for Germany Weather past 2 weeks in Magdeburg, Saxony-Anhalt, Germany

Now
58 °F

Overcast.


Feels Like: 58 °F
Forecast: 43 / 54 °F
Wind: 5 mph from Southwest

Location: Magdeburg

Current Time: Apr 26, 2015 at 10:59:13 AM

Latest Report: Apr 26, 2015 at 10:00 AM


Visibility: 13 mi

Pressure: 29.76 "Hg

Humidity: 79%

Dew point: 51 °F

Location of MagdeburgLocation

Historic Weather in Magdeburg — Graph

°F

Magdeburg temperature yesterday

Maximum temperature yesterday: 71 °F (at 2:00 PM)
Minimum temperature yesterday: 46 °F (at 6:00 AM)
Average temperature yesterday: 59 °F

Past Weeks' High & Low Weather Summary

 TemperatureHumidityPressure
High74 °F (Apr 15, 4:00 PM)97% (Apr 26, 6:00 AM)30.43 "Hg (Apr 26, 6:00 AM)
Low32 °F (Apr 18, 7:00 AM)23% (Apr 12, 4:00 PM)29.73 "Hg (Apr 25, 6:00 PM)
Average52 °F61%30.14 "Hg
* Reported Apr 11 9:00 AM — Apr 26 9:00 AM, Magdeburg, Weather by CustomWeather, © 2015

Note: Actual official high and low records may vary slightly from our data, if they occured in-between our weather recording intervals... More about our weather records

Advertising

Magdeburg weather history for previous 24 hours

 ConditionsComfort  
Time TempWeatherWind HumidityBarometerVisibility
9:00 AM
Sun, Apr 26
57 °FOvercast.3 mph81%29.77 "Hg9 mi
8:00 AM53 °FPartly sunny.2 mph85%29.78 "Hg5 mi
7:00 AM48 °FScattered clouds.1 mph95%29.78 "Hg5 mi
6:00 AM47 °FPassing clouds.1 mph97%29.77 "Hg5 mi
4:00 AM51 °FClear.2 mph91%29.78 "Hg5 mi
3:00 AM54 °FPassing clouds.2 mph86%29.78 "Hg7 mi
2:00 AM52 °FFog.1 mph93%29.77 "Hg4 mi
1:00 AM53 °FFog.2 mph93%29.78 "Hg4 mi
12:00 AM53 °FOvercast.2 mph93%29.78 "Hg4 mi
10:00 PM
Sat, Apr 25
54 °FDrizzle. Overcast.1 mph92%29.77 "Hg4 mi
9:00 PM55 °FLight rain. Overcast.1 mph87%29.76 "Hg7 mi
8:00 PM57 °FOvercast.1 mph79%29.75 "Hg19 mi
7:00 PM60 °FOvercast.6 mph69%29.75 "Hg22 mi
6:00 PM62 °FOvercast.2 mph65%29.73 "Hg14 mi
4:00 PM65 °FLight rain. Overcast.6 mph46%29.74 "Hg19 mi
3:00 PM68 °FOvercast.7 mph36%29.75 "Hg25 mi
2:00 PM71 °FOvercast.7 mph28%29.74 "Hg25 mi
1:00 PM71 °FOvercast.7 mph30%29.75 "Hg25 mi
12:00 PM70 °FOvercast.3 mph39%29.76 "Hg22 mi
10:00 AM62 °FOvercast.1 mph52%29.79 "Hg12 mi
Weather by CustomWeather, © 2015

See weather overviewHow to use our weather pages